Regional Weather Roundup
Issued by NWS

Home | Current Version | Previous Version | Text Only | Print | Product List | Glossary Off
Versions: 1 2 3 4 5 6 7 8 9 10 11 12 13 14 15 16 17 18 19 20 21 22 23 24 25 26 27 28 29 30 31 32 33 34 35 36 37 38 39 40 41 42 43 44 45 46 47 48 49 50

000
ASUS43 KMPX 201810
RWRMN
WEATHER ROUNDUP FOR MINNESOTA
NATIONAL WEATHER SERVICE TWIN CITIES/CHANHASSEN MN
100 PM CDT SUN APR 20 2014


NOTE: "FAIR" INDICATES FEW OR NO CLOUDS BELOW 12,000 FEET WITH NO
SIGNIFICANT WEATHER AND/OR OBSTRUCTIONS TO VISIBILITY. N/A MEANS
CURRENT SKY AND/OR WEATHER CONDITIONS ARE NOT AVAILABLE.

MNZ060>063-068>070-201900-
   Twin Cities Metro

CITY           SKY/WX    TMP DP  RH WIND       PRES   REMARKS
TWIN CITIES    MOSUNNY   69  44  40 E6        30.01F
6HR MIN TEMP:  45; 6HR MAX TEMP:  69;

ST PAUL        MOSUNNY   68  46  45 S6        30.01F
CRYSTAL        SUNNY     70  39  32 VRB3      30.00F
BLAINE         SUNNY     72  37  28 S3        30.02F
EDEN PRAIRIE   SUNNY     70  44  39 E5        30.00F
6HR MIN TEMP:  48; 6HR MAX TEMP:  71;

LAKEVILLE      PTSUNNY   64  54  68 NE3       30.00F
SOUTH ST PAUL  MOSUNNY   70  49  47 CALM      30.00F
LAKE ELMO      FAIR      68  48  49 SW3       30.02F
$$
MNZ001>005-007-008-013>017-022>024-027-028-201900-
   Northwest Minnesota

CITY           SKY/WX    TMP DP  RH WIND       PRES   REMARKS
BEMIDJI        SUNNY     63  31  30 CALM      30.00F
HALLOCK        CLOUDY    52  37  58 S3        30.01S
ROSEAU         SUNNY     52  37  58 CALM      30.03R
WARROAD          N/A     52  37  58 N3        30.03S HAZE
THIEF RVR FALL SUNNY     55  36  47 S7        30.01F
CROOKSTON      SUNNY     59  37  44 S6        30.00F
FOSSTON        SUNNY     63  34  34 S6        30.00F
DETROIT LAKES  SUNNY     64  34  32 SW10      30.02S
MOORHEAD       SUNNY     63  37  39 S9G16     30.01F
PARK RAPIDS    SUNNY     64  30  27 SE6       30.00F
$$
MNZ006-009>011-018-025>026-201900-
   North Central Minnesota

CITY           SKY/WX    TMP DP  RH WIND       PRES   REMARKS
BAUDETTE       SUNNY     51  36  56 CALM      30.02F
FLAG ISLAND    SUNNY     37  30  75 SE8       30.02S
INTL FALLS     SUNNY     53  33  46 VRB6      30.02F
6HR MIN TEMP:  30; 6HR MAX TEMP:  54;

WASKISH        SUNNY     54  36  50 NW5       30.02F
BIG FORK       SUNNY     63  34  34 S3        30.02S
LONGVILLE      SUNNY     64  28  25 CALM      30.02S
GRAND RAPIDS   SUNNY     61  32  33 CALM      30.03F
CRANE LAKE     SUNNY     57  46  67 NW5       30.04F
ORR            SUNNY     55  30  38 W5        30.00F
COOK           SUNNY     57  36  44 NW3       30.03S
$$
MNZ012-019>021-037-201900-
   Northeast Minnesota

CITY           SKY/WX    TMP DP  RH WIND       PRES   REMARKS
DULUTH         SUNNY     60  33  36 VRB3      30.03F
6HR MIN TEMP:  37; 6HR MAX TEMP:  60;

ELY            SUNNY     57  27  30 W7        30.03S
HIBBING        SUNNY     61  33  35 VRB5      30.02F
EVELETH        SUNNY     57  32  38 N6        30.03F
DULUTH HARBOR  SUNNY     41  36  81 CALM      30.04F
TWO HARBORS    SUNNY     54  37  54 S8        30.01F
SILVER BAY     SUNNY     52  41  66 SE5       30.01S
GRAND MARAIS     N/A     39  33  79 SW8       30.03S
G MARAIS ARPRT SUNNY     57  23  26 W9        30.02S
$$
MNZ029>031-032-039>041-046>048-054>057-064-201900-
   West Central Minnesota

CITY           SKY/WX    TMP DP  RH WIND       PRES   REMARKS
FERGUS FALLS   SUNNY     68  28  22 SE6       29.97F
WHEATON        SUNNY     72  39  30 S7G16     30.01F
MORRIS         SUNNY     70  36  28 SE9       30.00F
ALEXANDRIA     SUNNY     66  36  32 S8        30.03S
ELBOW LAKE     FAIR      68  36  31 S6        30.01S
WADENA         SUNNY     64  34  32 CALM      30.01F
GLENWOOD       SUNNY     68  37  32 SE8       30.02F
APPLETON       SUNNY     72  36  26 S7        30.00F
BENSON         SUNNY     70  36  28 S9        30.01S
ORTONVILLE     SUNNY     68  36  30 SE6       30.00F
MADISON        SUNNY     72  37  28 SE9       30.00F
WILLMAR        FAIR      66  37  34 SE7       30.02F
$$
MNZ033>034-036-042>043-049>051-058-059-201900-
   Central Minnesota

CITY           SKY/WX    TMP DP  RH WIND       PRES   REMARKS
ST CLOUD       SUNNY     67  37  33 SE6       30.02F
6HR MIN TEMP:  34; 6HR MAX TEMP:  68;

SAUK CENTRE    FAIR      66  36  32 CALM      30.02F
PAYNESVILLE    SUNNY     65  38  37 CALM      30.02F
AITKIN         SUNNY     66  25  20 CALM      30.01F
PINE RIVER     SUNNY     63  34  34 S3        30.05F
BRAINERD       SUNNY     71  30  21 CALM      30.02F
STAPLES        SUNNY     64  28  25 CALM      30.02S
LONG PRAIRIE   FAIR      64  37  36 SE7       30.02F
LITTLE FALLS   SUNNY     64  34  32 E3        30.02F
LITCHFIELD     SUNNY     68  39  34 E7        30.02F
BUFFALO        SUNNY     67  43  42 NE3       30.02F
MAPLE LAKE     SUNNY     67  44  44 E3        30.03F
$$
MNZ037-044-045-052-053-201900-
   East Central Minnesota

CITY           SKY/WX    TMP DP  RH WIND       PRES   REMARKS
PRINCETON      SUNNY     68  39  34 CALM      30.03F
MORA           SUNNY     64  37  36 CALM      30.04F
CAMBRIDGE      SUNNY     64  45  48 CALM      30.02F
RUSH CITY      SUNNY     61  42  49 CALM      30.04F
MOOSE LAKE     SUNNY     64  37  36 CALM      30.01F
HINCKLEY       FAIR      61  41  48 CALM      30.03F
CLOQUET        SUNNY     63  28  27 W5        30.02F
MCGREGOR       SUNNY     63  32  31 CALM      30.03F
$$
MNZ071>073-080-081-089-090-097-098-201900-
   Southwest Minnesota

CITY           SKY/WX    TMP DP  RH WIND       PRES   REMARKS
MONTEVIDEO     SUNNY     70  43  37 S8        30.01F
GRANITE FALLS  SUNNY     68  42  39 S5        30.02F
CANBY          SUNNY     67  38  34 SE8       30.01F
MARSHALL       SUNNY     70  39  32 E13       30.00F
REDWOOD FALLS  SUNNY     71  37  28 SE9       30.00F
OLIVIA         SUNNY     70  45  40 E7        30.00F
PIPESTONE      SUNNY     72  25  17 SE12G20   29.98F
WINDOM         SUNNY     73  36  25 E12G17    29.99F
WORTHINGTON    SUNNY     70  41  35 E14       30.01F
JACKSON        SUNNY     70  45  40 SE7       30.00F
TRACY          SUNNY     72  38  28 E12       30.00F
SLAYTON        SUNNY     71  27  19 NE15      30.00F
$$
MNZ065>067-074>077-082>085-091>093-201900-
   South Central Minnesota

CITY           SKY/WX    TMP DP  RH WIND       PRES   REMARKS
MANKATO        MOSUNNY   64  52  63 CALM      30.01F
NEW ULM        SUNNY     70  41  35 E9        29.99F
ST JAMES       SUNNY     70  52  52 NE9       30.00F
FAIRMONT       SUNNY     66  52  59 S6        30.02F
GLENCOE        SUNNY     70  36  28 E9        30.00F
FARIBAULT      PTSUNNY   70  50  49 SE6       30.02R
OWATONNA       PTSUNNY   64  54  68 S6        30.02S
WASECA         MOSUNNY   66  54  63 SE6       30.03F
ALBERT LEA     PTSUNNY   61  55  82 SW7       30.02F
$$
MNZ078>079-086>088-094>096-201900-
   Southeast Minnesota

CITY           SKY/WX    TMP DP  RH WIND       PRES   REMARKS
ROCHESTER      LGT RAIN  55  52  89 S9        30.03F FOG
6HR MIN TEMP:  52; 6HR MAX TEMP:  56; 6HR PCP:  0.12;

RED WING       PTSUNNY   66  52  59 CALM      30.00F
STANTON        PTSUNNY   67  51  57 S3        29.99F
DODGE CENTER   CLOUDY    61  55  82 S13       30.03S
WINONA           N/A    N/A N/A N/A MISG        N/A
AUSTIN         CLOUDY    57  54  88 S9        30.03S
PRESTON        CLOUDY    53  52  95 S8        30.05F
$$
ABBREVIATIONS USED IN REMARKS
   TC - TEMPERATURES IN CELSIUS
  WCI - WIND CHILL INDEX
   HX - HEAT INDEX
  VSB - VISIBILITY
$$


USA.gov is the U.S. government's official web portal to all federal, state and local government web resources and services.